STARLINK-5013, 55492

Orbit data source: Space-Track

STARLINK-5013, 55492 is a payload satellite owned by SpaceX/Seattle (US) in LEO that was launched on Thu, 02 Feb 2023 UTC via an FALCON 9 launch vehicle from the Air Force Eastern Test Range (AFETR). Payload-class satellites include a variety of spacecraft equipped with specific instruments for various scientific and technological missions. These include communications satellites like Starlink; space stations such as the ISS; scientific satellites like the Hubble; Earth observation satellites from companies like Planet Labs, Umbra, and HawkEye 360; GPS; miniature CubeSats for education and research; and military/defense satellites.

Loading next visibility...
Identifier
55492, 2023-015AV
Orbit
LEO
Country
Flag of USUS
Related business
Manufacturer
SpaceX/Seattle
Mission
Operational Commercial Communications
Bus & Motor
STARLINK, Unknown motor
Mass
305 kg wet, ~290 kg dry
Launch date (UTC)
2023-02-02 (3 years ago)
Launch vehicle
FALCON 9
Launch site
Air Force Eastern Test Range (AFETR)
Object type
Payload
Rocket body
Debris
Shape & HBR
Box + 1 Pan, 10.1 m
Radar Cross Section
13.562 m², Large (>1 m²)

Expand to show TLE details & history
Last TLE update: 18 hours ago

TLE from 18 hours ago
0 STARLINK-5013
1 55492U 23015AV  26035.37088589  .00000129  00000-0  24647-4 0  9999
2 55492  43.0030 159.8799 0001199 265.6037  94.4668 15.02533162165595
Epoch: 2026-02-04T08:54Z
TLE epoch observation values (Epoch: 2026-02-04T08:54:04.540Z)
Latitude
-0.00006°
Longitude
-108.17751°
Altitude
558.931 km
Speed
7.584 km/s
True Right ascension
10h 39m 31s
True Declination
0° 00' 00"
Sunlit
Object was in full shadow at epoch
Visualization orbit readout
Latitude
Unknown
Longitude
Unknown
Altitude
Unknown
Speed
Unknown
Apparent Right ascension
Unknown
Apparent Declination
Unknown
Sunlit
N/A
Visualization observer readout
Local Sidereal Time
04:39:27
Azimuth
Unknown
Elevation
Unknown
Doppler factor
Unknown
Orbital elements
Apogee altitude
561.844 km
Perigee altitude
560.18 km
Semi-major axis
6,939.149 km
Eccentricity
0.00012
Inclination
43.003°
RAAN
159.8799°
Arg. of periapsis
265.6037°
True anomaly
94.4805°
Mean anomaly
94.4668°
Eccentric anomaly
94.47365°
Mean motion
3.75477 °/min
Orbital period
95.88 mins
BSTAR
0.000024647
Loading maneuver chart data...
Computing Atmospheric mass density...
Loading historical data...
Loading historical data...
Loading historical data...
Loading historical data...
Loading historical data...
Loading historical data...
Loading historical data...

Documentation

Showing up to 5 results
|